| time (UTC) | temp F | wind direction | speed MPH | gust MPH | rain 1hr in | rain 24hr in | rain mn in | humidity % | barometer mb |
| 20260504002713 | 34 | 0.0 | 0.0 | 0.00 | 0.01 | 0.00 | 72 | 1007.4 | |
| 20260504000712 | 35 | 0.0 | 0.0 | 0.00 | 0.01 | 0.00 | 69 | 1007.5 | |
| 20260503234712 | 36 | 0.0 | 0.0 | 0.00 | 0.01 | 0.00 | 65 | 1007.6 | |
| 20260503232712 | 36 | 0.0 | 0.0 | 0.00 | 0.01 | 0.00 | 65 | 1007.5 | |
| 20260503230711 | 37 | 0.0 | 0.0 | 0.00 | 0.01 | 0.00 | 61 | 1007.7 | |
| 20260503224712 | 39 | 0.0 | 0.0 | 0.00 | 0.01 | 0.00 | 57 | 1007.9 | |
| 20260503222712 | 39 | 0.0 | 0.0 | 0.00 | 0.01 | 0.00 | 56 | 1007.9 | |
| 20260503220711 | 40 | 0.0 | 0.0 | 0.00 | 0.01 | 0.00 | 53 | 1008.1 | |
| 20260503214711 | 40 | 0.0 | 0.0 | 0.00 | 0.01 | 0.00 | 54 | 1008.2 | |
| 20260503212711 | 42 | 0.0 | 0.0 | 0.00 | 0.01 | 0.00 | 52 | 1008.1 | |
| 20260503210712 | 45 | 0.0 | 0.0 | 0.00 | 0.01 | 0.00 | 47 | 1008.2 | |
| 20260503204711 | 45 | 0.0 | 0.0 | 0.00 | 0.01 | 0.01 | 50 | 1008.0 | |
| 20260503202711 | 47 | 0.0 | 0.0 | 0.00 | 0.01 | 0.01 | 44 | 1008.0 | |
| 20260503200711 | 48 | 0.0 | 0.0 | 0.00 | 0.01 | 0.01 | 42 | 1008.1 | |
| 20260503194710 | 49 | 0.0 | 0.0 | 0.00 | 0.01 | 0.01 | 41 | 1007.9 | |
| 20260503192710 | 50 | 0.0 | 0.0 | 0.00 | 0.01 | 0.01 | 38 | 1007.8 | |
| 20260503190710 | 50 | 0.0 | 0.0 | 0.00 | 0.01 | 0.01 | 36 | 1007.8 | |
| 20260503184711 | 51 | 0.0 | 0.0 | 0.00 | 0.01 | 0.01 | 33 | 1007.7 | |
| 20260503182710 | 52 | 0.0 | 0.0 | 0.00 | 0.01 | 0.01 | 31 | 1007.6 | |
| 20260503180710 | 52 | 0.0 | 0.0 | 0.00 | 0.01 | 0.01 | 31 | 1007.5 | |
| 20260503174711 | 53 | 0.0 | 0.0 | 0.00 | 0.01 | 0.01 | 31 | 1007.4 | |
| 20260503172717 | 53 | 0.0 | 0.0 | 0.00 | 0.01 | 0.01 | 30 | 1007.1 | |
| 20260503170710 | 55 | 0.0 | 0.0 | 0.00 | 0.01 | 0.01 | 30 | 1007.2 | |
| 20260503150710 | 57 | 0.0 | 0.0 | 0.00 | 0.01 | 0.01 | 34 | 1007.3 | |
| 20260503130709 | 55 | 0.0 | 0.0 | 0.00 | 0.01 | 0.01 | 44 | 1008.0 | |
| 20260503110709 | 52 | 0.0 | 0.0 | 0.00 | 0.01 | 0.01 | 60 | 1008.3 | |
| 20260503080709 | 51 | 0.0 | 0.0 | 0.00 | 0.01 | 0.01 | 62 | 1007.7 | |
| 20260503072708 | 50 | 0.0 | 0.0 | 0.00 | 0.01 | 0.01 | 64 | 1007.4 | |
| 20260503070708 | 50 | 0.0 | 0.0 | 0.00 | 0.01 | 0.01 | 67 | 1007.2 | |
| 20260503054708 | 47 | 0.0 | 0.0 | 0.00 | 0.01 | 0.01 | 75 | 1006.6 | |
| 20260503052708 | 47 | 0.0 | 0.0 | 0.00 | 0.01 | 0.01 | 78 | 1006.7 | |
| 20260503050708 | 46 | 0.0 | 0.0 | 0.00 | 0.01 | 0.01 | 79 | 1006.5 | |
| 20260503044708 | 46 | 0.0 | 0.0 | 0.01 | 0.01 | 0.01 | 80 | 1006.4 | |
| 20260503042708 | 46 | 0.0 | 0.0 | 0.01 | 0.01 | 0.01 | 80 | 1006.3 | |
| 20260503040707 | 46 | 0.0 | 0.0 | 0.01 | 0.01 | 0.01 | 81 | 1006.3 | |
| 20260503034707 | 47 | 0.0 | 0.0 | 0.00 | 0.00 | 0.00 | 75 | 1006.1 | |
| 20260503032708 | 48 | 0.0 | 0.0 | 0.00 | 0.00 | 0.00 | 70 | 1005.7 | |
| 20260503030708 | 48 | 0.0 | 0.0 | 0.00 | 0.00 | 0.00 | 69 | 1005.6 | |
| 20260503024708 | 49 | 0.0 | 0.0 | 0.00 | 0.00 | 0.00 | 68 | 1005.5 | |
| 20260503022707 | 49 | 0.0 | 0.0 | 0.00 | 0.00 | 0.00 | 66 | 1005.5 | |
| 20260503020707 | 49 | 0.0 | 0.0 | 0.00 | 0.00 | 0.00 | 63 | 1005.3 | |
| 20260503014708 | 50 | 0.0 | 0.0 | 0.00 | 0.00 | 0.00 | 61 | 1005.2 | |
| 20260503012707 | 51 | 0.0 | 0.0 | 0.00 | 0.00 | 0.00 | 59 | 1005.2 | |
| 20260503010707 | 51 | 0.0 | 0.0 | 0.00 | 0.00 | 0.00 | 56 | 1005.2 | |
| 20260503004707 | 51 | 0.0 | 0.0 | 0.00 | 0.00 | 0.00 | 57 | 1005.2 |